Dothan, AL

4:20 AM CST on February 25, 2018 (GMT -0600)
Dothan Regional

Weather History for KDHN - January, 2013

Change the Weather History Date:

Tuesday, January 8, 2013

  Actual Average Record
Temperature  
Mean Temperature 56 °F 48 °F  
Max Temperature 66 °F 60 °F 80 °F (1946)
Min Temperature 46 °F 38 °F 16 °F (2015)
Degree Days  
Heating Degree Days 9 17  
Month to date heating degree days 132  
Since 1 July heating degree days 845  
Growing Degree Days 6 (Base 50)    
Moisture  
Dew Point 46 °F    
Average Humidity 67    
Maximum Humidity 82    
Minimum Humidity 56    
Precipitation  
Precipitation 0.00 in 0.12 in 2.79 in (1964)
Month to date precipitation 1.17  
Year to date precipitation 1.17  
Sea Level Pressure  
Sea Level Pressure 30.29 in    
Wind  
Wind Speed 7 mph (ENE)    
Max Wind Speed 10 mph    
Max Gust Speed 16 mph    
Visibility 10 miles    
Events      
T = Trace of Precipitation, MM = Missing Value Source: NWS Daily Summary

Daily Weather History Graph

Daily Weather History Graph

Search for Another Location

Airport or City:

Trip Planner

Search our weather history database for the weather conditions in past years. The results will help you decide how hot, cold, wet, or windy it might be!

Date:

Astronomy

Jan. 08, 2013 Rise Set
Actual Time 6:41 AM CST 4:55 PM CST
Civil Twilight 6:15 AM CST 5:22 PM CST
Nautical Twilight 5:45 AM CST 5:52 PM CST
Astronomical Twilight 5:15 AM CST 6:21 PM CST
Moon 3:15 AM CST (1/8) 1:56 PM CST (1/8)
Length of Visible Light 11h 07m
Length of Day
10h 14m
Waning Crescent, 13% of the Moon is Illuminated
Jan 8
Waning Crescent
Jan 11
New
Jan 18
First Quarter
Jan 26
Full
Feb 3
Last Quarter

Hourly Weather History & Observations

Time (CST) Temp. Windchill Dew Point Humidity Pressure Visibility Wind Dir Wind Speed Gust Speed Precip Events Conditions
12:53 AM 46.0 °F 43.1 °F 37.0 °F 71% 30.28 in 10.0 mi ENE 5.8 mph - N/A   Clear
1:53 AM 46.0 °F 42.5 °F 37.0 °F 71% 30.27 in 10.0 mi East 6.9 mph - N/A   Clear
2:53 AM 46.9 °F - 36.0 °F 66% 30.27 in 10.0 mi East 6.9 mph - N/A   Clear
3:53 AM 46.0 °F 43.9 °F 37.0 °F 71% 30.27 in 10.0 mi ENE 4.6 mph - N/A   Mostly Cloudy
4:53 AM 46.9 °F - 37.0 °F 68% 30.27 in 10.0 mi ENE 5.8 mph - N/A   Overcast
5:53 AM 48.0 °F - 37.9 °F 68% 30.28 in 10.0 mi East 8.1 mph - N/A   Overcast
6:53 AM 48.0 °F - 37.9 °F 68% 30.31 in 10.0 mi East 5.8 mph - N/A   Overcast
7:45 AM 48.2 °F - 39.2 °F 71% 30.33 in 10.0 mi East 9.2 mph - N/A   Overcast
7:53 AM 48.9 °F - 39.0 °F 69% 30.33 in 10.0 mi East 9.2 mph - N/A   Overcast
8:12 AM 50.0 °F - 39.2 °F 66% 30.33 in 10.0 mi East 10.4 mph - N/A   Overcast
8:45 AM 51.8 °F - 39.2 °F 62% 30.34 in 10.0 mi East 9.2 mph - N/A   Overcast
8:53 AM 51.1 °F - 39.9 °F 66% 30.34 in 10.0 mi East 9.2 mph - N/A   Overcast
9:18 AM 53.6 °F - 42.8 °F 67% 30.34 in 10.0 mi ENE 9.2 mph - N/A   Overcast
9:34 AM 51.8 °F - 42.8 °F 71% 30.34 in 10.0 mi ENE 9.2 mph - N/A   Overcast
9:53 AM 53.1 °F - 42.1 °F 66% 30.35 in 10.0 mi East 5.8 mph - N/A   Overcast
10:53 AM 59.0 °F - 46.0 °F 62% 30.30 in 10.0 mi East 9.2 mph - N/A   Mostly Cloudy
11:13 AM 60.8 °F - 46.4 °F 59% 30.31 in 10.0 mi East 6.9 mph - N/A   Mostly Cloudy
11:28 AM 60.8 °F - 46.4 °F 59% 30.30 in 10.0 mi ENE 5.8 mph - N/A   Overcast
11:53 AM 62.1 °F - 48.0 °F 60% 30.29 in 10.0 mi East 3.5 mph - N/A   Overcast
12:41 PM 64.4 °F - 48.2 °F 56% 30.27 in 10.0 mi East 5.8 mph - N/A   Mostly Cloudy
12:53 PM 66.0 °F - 50.0 °F 56% 30.26 in 10.0 mi East 3.5 mph - N/A   Partly Cloudy
1:38 PM 66.2 °F - 51.8 °F 60% 30.26 in 10.0 mi NNE 3.5 mph - N/A   Mostly Cloudy
1:53 PM 66.0 °F - 51.1 °F 59% 30.26 in 10.0 mi East 3.5 mph - N/A   Overcast
2:53 PM 66.0 °F - 52.0 °F 60% 30.25 in 10.0 mi ENE 6.9 mph - N/A   Overcast
3:38 PM 66.2 °F - 53.6 °F 64% 30.25 in 10.0 mi ENE 4.6 mph - N/A   Overcast
3:45 PM 66.2 °F - 53.6 °F 64% 30.25 in 10.0 mi ENE 4.6 mph - N/A   Overcast
3:53 PM 66.9 °F - 53.1 °F 61% 30.25 in 10.0 mi East 4.6 mph - N/A   Overcast
4:53 PM 64.9 °F - 53.1 °F 65% 30.26 in 10.0 mi ENE 4.6 mph - N/A   Overcast
6:53 PM 62.1 °F - 52.0 °F 70% 30.26 in 10.0 mi ENE 5.8 mph - N/A   Mostly Cloudy
7:53 PM 60.1 °F - 51.1 °F 72% 30.27 in 10.0 mi ENE 8.1 mph - N/A   Clear
8:53 PM 57.9 °F - 50.0 °F 75% 30.27 in 10.0 mi ENE 8.1 mph - N/A   Clear
9:53 PM 57.0 °F - 50.0 °F 77% 30.27 in 10.0 mi East 5.8 mph - N/A   Partly Cloudy
10:22 PM 57.2 °F - 50.0 °F 77% 30.29 in 10.0 mi ENE 6.9 mph - N/A   Mostly Cloudy
11:15 PM 57.2 °F - 51.8 °F 82% 30.28 in 10.0 mi ENE 10.4 mph 16.1 mph N/A   Overcast
11:53 PM 57.9 °F - 52.0 °F 81% 30.28 in 10.0 mi East 6.9 mph - N/A   Overcast